User: anonymous   Login
Location: Unspecified
(0.0000°N, 0.0000°E)
Time: 04:55:54
(UTC+00:00)
Language:

NNS O-27 - Orbit

View from above orbital plane
View from above orbital plane
View from above satellite
View from above satellite

Ground track
Ground track

The orbit data is extracted from the following two-line orbital elements,

1 18361U 87080A   18343.59876591 +.00000017 +00000-0 +15696-4 0  9990
2 18361 090.3178 353.1220 0104370 354.9994 005.0102 13.44466462531538
Epoch (UTC): 09 December 2018 14:22:13
Eccentricity: 0.0104370
inclination: 90.3178°
perigee height: 1015 km
apogee height: 1170 km
right ascension of ascending node: 353.1220°
argument of perigee: 354.9994°
revolutions per day: 13.44466462
mean anomaly at epoch: 5.0102°
orbit number at epoch: 53153

The dashed part of the orbit path shows where the satellite is in the earth's shadow,  

DLR